Lamezia Terme, Italy

8:20 AM CEST on June 24, 2017 (GMT +0200)
Terme

Weather History for LICA - October, 2013

Change the Weather History Date:

Sunday, October 27, 2013

  Actual Average Record
Temperature  
Mean Temperature 64 °F -  
Max Temperature 73 °F 64 °F 84 °F (1999)
Min Temperature 55 °F 50 °F 46 °F (1996)
Degree Days  
Heating Degree Days 1    
Growing Degree Days 14 (Base 50)    
Moisture  
Dew Point 61 °F    
Average Humidity 86    
Maximum Humidity 100    
Minimum Humidity 73    
Precipitation  
Precipitation 0.00 in - - ()
Sea Level Pressure  
Sea Level Pressure 30.22 in    
Wind  
Wind Speed 6 mph ()    
Max Wind Speed 16 mph    
Max Gust Speed -    
Visibility 6.2 miles    
Events      
Averages and records for this station are not official NWS values.
T = Trace of Precipitation, MM = Missing Value Source: Averaged Metar Reports

Daily Weather History Graph

Daily Weather History Graph

Search for Another Location

Airport or City:

Trip Planner

Search our weather history database for the weather conditions in past years. The results will help you decide how hot, cold, wet, or windy it might be!

Date:

Astronomy

Oct. 27, 2013 Rise Set
Actual Time 6:16 AM CET 5:00 PM CET
Civil Twilight 5:49 AM CET 5:27 PM CET
Nautical Twilight 5:18 AM CET 5:58 PM CET
Astronomical Twilight 4:47 AM CET 6:29 PM CET
Moon 11:57 PM CET (10/27) 12:56 PM CET (10/27)
Length of Visible Light 11h 38m
Length of Day
10h 43m
Last Quarter, 45% of the Moon is Illuminated
Oct 27
Last Quarter
Nov 3
New
Nov 10
First Quarter
Nov 17
Full
Nov 25
Last Quarter

Hourly Weather History & Observations

Time (CET) Temp. Dew Point Humidity Pressure Visibility Wind Dir Wind Speed Gust Speed Precip Events Conditions
12:50 AM 57.2 °F 57.2 °F 100% 30.24 in - East 4.6 mph - N/A   Clear
1:50 AM 57.2 °F 55.4 °F 94% 30.24 in - East 4.6 mph - N/A   Clear
2:50 AM 57.2 °F 55.4 °F 94% 30.24 in - East 4.6 mph - N/A   Clear
2:50 AM 55.4 °F 55.4 °F 100% 30.21 in - East 4.6 mph - N/A   Clear
3:50 AM 55.4 °F 55.4 °F 100% 30.21 in - East 4.6 mph - N/A   Clear
4:50 AM 55.4 °F 55.4 °F 100% 30.21 in - East 5.8 mph - N/A   Clear
6:50 AM 57.2 °F 57.2 °F 100% 30.24 in 6.2 mi East 4.6 mph - N/A   Scattered Clouds
7:50 AM 60.8 °F 59.0 °F 94% 30.24 in 6.2 mi Variable 3.5 mph - N/A   Partly Cloudy
8:50 AM 66.2 °F 62.6 °F 88% 30.24 in 6.2 mi Variable 3.5 mph - N/A   Scattered Clouds
9:50 AM 69.8 °F 64.4 °F 83% 30.24 in 6.2 mi WSW 8.1 mph - N/A   Partly Cloudy
10:50 AM 71.6 °F 64.4 °F 78% 30.24 in 6.2 mi WSW 9.2 mph - N/A   Partly Cloudy
11:50 AM 73.4 °F 64.4 °F 73% 30.24 in 6.2 mi WSW 11.5 mph - N/A   Partly Cloudy
12:50 PM 71.6 °F 64.4 °F 78% 30.21 in 6.2 mi WSW 12.7 mph - N/A   Partly Cloudy
1:50 PM 73.4 °F 64.4 °F 73% 30.21 in 6.2 mi West 13.8 mph - N/A   Partly Cloudy
2:50 PM 73.4 °F 64.4 °F 73% 30.21 in 6.2 mi West 16.1 mph - N/A   Partly Cloudy
3:50 PM 71.6 °F 62.6 °F 73% 30.21 in 6.2 mi West 13.8 mph - N/A   Partly Cloudy
4:50 PM 69.8 °F 62.6 °F 78% 30.21 in 6.2 mi West 11.5 mph - N/A   Partly Cloudy
5:50 PM 69.8 °F 62.6 °F 78% 30.21 in 6.2 mi West 8.1 mph - N/A   Partly Cloudy
6:50 PM 68.0 °F 62.6 °F 83% 30.21 in 6.2 mi WSW 8.1 mph - N/A   Partly Cloudy
7:50 PM 68.0 °F 62.6 °F 83% 30.21 in 6.2 mi WSW 5.8 mph - N/A   Partly Cloudy
8:50 PM 68.0 °F 62.6 °F 83% 30.21 in 6.2 mi SSW 5.8 mph - N/A   Partly Cloudy
9:50 PM 68.0 °F 62.6 °F 83% 30.21 in 6.2 mi SSW 5.8 mph - N/A   Partly Cloudy
10:50 PM 68.0 °F 62.6 °F 83% 30.21 in 6.2 mi West 9.2 mph - N/A   Partly Cloudy